Tracking 35274 objects as of 11-Sep-2026
HD Live streaming from Space Station
objects crossing your sky now

STARLINK-3857

Track STARLINK-3857 now!
10-day predictions
STARLINK-3857 is classified as:


NORAD ID: 52494
Int'l Code: 2022-049AV
Launch date: May 6, 2022
Source: United States (US)
Launch site: AIR FORCE EASTERN TEST RANGE (AFETR)
Your satellite tracking list
Your tracking list is empty




NASA's NSSDC Master Catalog

Two Line Element Set (TLE):
1 52494U 22049AV  26254.13517674  .00001175  00000-0  45926-4 0  9998
2 52494  53.1597 281.8429 0001248  90.8489 269.2657 15.34387810240590
Source of the keplerian elements: AFSPC